Weather History for Liberal, KS

Change the Weather History Date:

Saturday, December 22, 2012

  Actual Average Record
Temperature  
Mean Temperature 36 °F -  
Max Temperature 53 °F 47 °F 73 °F (1955)
Min Temperature 19 °F 20 °F -12 °F (1989)
Degree Days  
Heating Degree Days 29    
Moisture  
Dew Point 15 °F    
Average Humidity 46    
Maximum Humidity 64    
Minimum Humidity 24    
Precipitation  
Precipitation 0.00 in - - ()
Sea Level Pressure  
Sea Level Pressure 30.00 in    
Wind  
Wind Speed 9 mph (NW)    
Max Wind Speed 14 mph    
Max Gust Speed -    
Visibility 10 miles    
Events      
Averages and records for this station are not official NWS values.
T = Trace of Precipitation, MM = Missing Value Source: NWS Daily Summary

Daily Weather History Graph

Daily Weather History Graph

Search for Another Location

Airport:

Trip Planner

Search our weather history database for the weather conditions in past years. The results will help you decide how hot, cold, wet, or windy it might be!

Date:

Astronomy

Dec. 22, 2012 Rise Set
Actual Time 7:54 AM CST 5:31 PM CST
Civil Twilight 7:25 AM CST 6:00 PM CST
Nautical Twilight 6:52 AM CST 6:33 PM CST
Astronomical Twilight 6:20 AM CST 7:04 PM CST
Moon 1:46 PM CST (12/22) 2:45 AM CST (12/22)
Length of Visible Light 10h 35m
Length of Day
9h 37m
Waxing Gibbous, 74% of the Moon is Illuminated
Dec 22
Waxing Gibbous
Dec 28
Full
Jan 4
Last Quarter
Jan 11
New
Jan 18
First Quarter

Hourly Weather History & Observations

Time (CST) Temp. Windchill Dew Point Humidity Pressure Visibility Wind Dir Wind Speed Gust Speed Precip Events Conditions
12:15 AM 32.0 °F 22.1 °F 10.4 °F 41% 30.09 in 10.0 mi SW 13.8 mph - N/A   Clear
12:35 AM 30.2 °F 20.2 °F 8.6 °F 40% 30.08 in 10.0 mi SSW 12.7 mph - N/A   Clear
12:55 AM 32.0 °F 22.1 °F 8.6 °F 38% 30.08 in 10.0 mi SW 13.8 mph - N/A   Clear
1:15 AM 28.4 °F 18.5 °F 5.0 °F 37% 30.08 in 10.0 mi SSW 11.5 mph - N/A   Clear
1:35 AM 28.4 °F 18.0 °F 6.8 °F 40% 30.07 in 10.0 mi SSW 12.7 mph - N/A   Clear
1:55 AM 26.6 °F 17.5 °F 5.0 °F 40% 30.07 in 10.0 mi SW 9.2 mph - N/A   Clear
2:15 AM 24.8 °F 15.3 °F 3.2 °F 40% 30.06 in 10.0 mi SW 9.2 mph - N/A   Clear
2:35 AM 23.0 °F 13.9 °F 6.8 °F 50% 30.06 in 10.0 mi SW 8.1 mph - N/A   Clear
2:55 AM 24.8 °F 16.1 °F 8.6 °F 50% 30.05 in 10.0 mi SW 8.1 mph - N/A   Clear
3:15 AM 26.6 °F 18.2 °F 8.6 °F 47% 30.04 in 10.0 mi WSW 8.1 mph - N/A   Clear
3:35 AM 24.8 °F 16.1 °F 5.0 °F 43% 30.04 in 10.0 mi SW 8.1 mph - N/A   Clear
3:55 AM 23.0 °F 13.9 °F 6.8 °F 50% 30.03 in 10.0 mi SW 8.1 mph - N/A   Clear
4:15 AM 21.2 °F 13.6 °F 6.8 °F 54% 30.02 in 10.0 mi SW 5.8 mph - N/A   Clear
4:35 AM 21.2 °F 11.7 °F 6.8 °F 54% 30.03 in 10.0 mi West 8.1 mph - N/A   Clear
4:55 AM 24.8 °F 17.9 °F 8.6 °F 50% 30.02 in 10.0 mi WSW 5.8 mph - N/A   Clear
5:15 AM 21.2 °F 14.9 °F 6.8 °F 54% 30.02 in 10.0 mi WSW 4.6 mph - N/A   Clear
5:35 AM 23.0 °F 15.8 °F 8.6 °F 54% 30.01 in 10.0 mi West 5.8 mph - N/A   Clear
5:55 AM 23.0 °F 17.0 °F 6.8 °F 50% 30.02 in 10.0 mi West 4.6 mph - N/A   Clear
6:15 AM 23.0 °F 15.8 °F 8.6 °F 54% 30.01 in 10.0 mi West 5.8 mph - N/A   Clear
6:35 AM 21.2 °F 13.6 °F 8.6 °F 58% 30.01 in 10.0 mi West 5.8 mph - N/A   Clear
6:55 AM 19.4 °F 9.5 °F 6.8 °F 58% 30.02 in 10.0 mi SW 8.1 mph - N/A   Clear
7:15 AM 21.2 °F 10.9 °F 8.6 °F 58% 30.03 in 10.0 mi WSW 9.2 mph - N/A   Clear
7:35 AM 21.2 °F 12.6 °F 8.6 °F 58% 30.03 in 10.0 mi West 6.9 mph - N/A   Clear
7:55 AM 21.2 °F 13.6 °F 8.6 °F 58% 30.02 in 10.0 mi WNW 5.8 mph - N/A   Clear
8:15 AM 19.4 °F 7.9 °F 6.8 °F 58% 30.01 in 10.0 mi West 10.4 mph - N/A   Clear
8:35 AM 21.2 °F 10.9 °F 10.4 °F 63% 30.01 in 10.0 mi West 9.2 mph - N/A   Clear
8:55 AM 24.8 °F 16.9 °F 12.2 °F 59% 30.02 in 10.0 mi WNW 6.9 mph - N/A   Clear
9:15 AM 30.2 °F 25.4 °F 17.6 °F 60% 30.02 in 10.0 mi WNW 4.6 mph - N/A   Clear
9:35 AM 33.8 °F 27.7 °F 17.6 °F 52% 30.02 in 10.0 mi West 6.9 mph - N/A   Clear
9:55 AM 37.4 °F 32.1 °F 19.4 °F 48% 30.03 in 10.0 mi WNW 6.9 mph - N/A   Clear
10:15 AM 41.0 °F 35.8 °F 19.4 °F 42% 30.03 in 10.0 mi NW 8.1 mph - N/A   Clear
10:35 AM 42.8 °F 38.0 °F 19.4 °F 39% 30.03 in 10.0 mi NW 8.1 mph - N/A   Clear
10:55 AM 42.8 °F 36.6 °F 17.6 °F 36% 30.04 in 10.0 mi NW 11.5 mph - N/A   Clear
11:15 AM 44.6 °F 39.7 °F 19.4 °F 37% 30.02 in 10.0 mi WNW 9.2 mph - N/A   Clear
11:35 AM 46.4 °F 41.1 °F 19.4 °F 34% 30.01 in 10.0 mi NW 11.5 mph - N/A   Clear
11:55 AM 46.4 °F 40.7 °F 19.4 °F 34% 30.00 in 10.0 mi WNW 12.7 mph - N/A   Clear
12:15 PM 48.2 °F - 19.4 °F 32% 29.99 in 10.0 mi NW 11.5 mph - N/A   Clear
12:35 PM 51.8 °F - 19.4 °F 28% 29.98 in 10.0 mi NNW 12.7 mph - N/A   Clear
12:55 PM 51.8 °F - 19.4 °F 28% 29.97 in 10.0 mi NNW 12.7 mph - N/A   Clear
1:15 PM 51.8 °F - 19.4 °F 28% 29.96 in 10.0 mi NNW 10.4 mph - N/A   Clear
1:35 PM 51.8 °F - 19.4 °F 28% 29.95 in 10.0 mi NNW 11.5 mph - N/A   Clear
1:55 PM 53.6 °F - 17.6 °F 24% 29.95 in 10.0 mi NNW 10.4 mph - N/A   Clear
2:15 PM 53.6 °F - 19.4 °F 26% 29.94 in 10.0 mi North 9.2 mph - N/A   Clear
2:35 PM 53.6 °F - 19.4 °F 26% 29.93 in 10.0 mi North 10.4 mph - N/A   Clear
2:55 PM 53.6 °F - 17.6 °F 24% 29.93 in 10.0 mi North 9.2 mph - N/A   Clear
3:15 PM 53.6 °F - 17.6 °F 24% 29.94 in 10.0 mi North 8.1 mph - N/A   Clear
3:35 PM 53.6 °F - 17.6 °F 24% 29.94 in 10.0 mi NNE 6.9 mph - N/A   Clear
3:55 PM 53.6 °F - 19.4 °F 26% 29.95 in 10.0 mi NNE 8.1 mph - N/A   Clear
4:35 PM 51.8 °F - 21.2 °F 30% 29.95 in 10.0 mi North 9.2 mph - N/A   Clear
4:55 PM 48.2 °F - 21.2 °F 34% 29.95 in 10.0 mi North 6.9 mph - N/A   Clear
5:15 PM 46.4 °F 41.9 °F 19.4 °F 34% 29.95 in 10.0 mi North 9.2 mph - N/A   Clear
5:35 PM 46.4 °F 43.5 °F 21.2 °F 37% 29.95 in 10.0 mi NE 5.8 mph - N/A   Clear
5:55 PM 42.8 °F 39.3 °F 19.4 °F 39% 29.96 in 10.0 mi North 5.8 mph - N/A   Clear
6:15 PM 37.4 °F 31.4 °F 17.6 °F 45% 29.96 in 10.0 mi North 8.1 mph - N/A   Clear
6:35 PM 35.6 °F 29.9 °F 17.6 °F 48% 29.96 in 10.0 mi NNW 6.9 mph - N/A   Clear
6:55 PM 33.8 °F 27.7 °F 19.4 °F 56% 29.96 in 10.0 mi North 6.9 mph - N/A   Clear
7:15 PM 35.6 °F 32.8 °F 19.4 °F 52% 29.96 in 10.0 mi North 3.5 mph - N/A   Clear
7:35 PM 33.8 °F 28.6 °F 19.4 °F 56% 29.97 in 10.0 mi NW 5.8 mph - N/A   Clear
7:55 PM 33.8 °F 25.8 °F 19.4 °F 56% 29.96 in 10.0 mi NNW 10.4 mph - N/A   Clear
8:15 PM 33.8 °F 28.6 °F 21.2 °F 60% 29.97 in 10.0 mi NNW 5.8 mph - N/A   Clear
8:35 PM 33.8 °F 27.0 °F 19.4 °F 56% 29.97 in 10.0 mi NNW 8.1 mph - N/A   Clear
8:55 PM 33.8 °F 26.4 °F 21.2 °F 60% 29.97 in 10.0 mi NNW 9.2 mph - N/A   Clear
9:15 PM 33.8 °F 27.0 °F 21.2 °F 60% 29.97 in 10.0 mi North 8.1 mph - N/A   Clear
9:35 PM 32.0 °F 25.6 °F 19.4 °F 60% 29.97 in 10.0 mi NNW 6.9 mph - N/A   Clear
9:55 PM 32.0 °F 24.2 °F 21.2 °F 64% 29.98 in 10.0 mi NW 9.2 mph - N/A   Clear
10:15 PM 32.0 °F 24.8 °F 21.2 °F 64% 29.98 in 10.0 mi NNW 8.1 mph - N/A   Clear
10:35 PM 30.2 °F 21.9 °F 19.4 °F 64% 29.97 in 10.0 mi NNW 9.2 mph - N/A   Clear
10:55 PM 30.2 °F 23.4 °F 19.4 °F 64% 29.98 in 10.0 mi NNW 6.9 mph - N/A   Clear
11:15 PM 32.0 °F 24.2 °F 21.2 °F 64% 29.98 in 10.0 mi NNW 9.2 mph - N/A   Clear
11:35 PM 33.8 °F 27.0 °F 21.2 °F 60% 29.97 in 10.0 mi NNW 8.1 mph - N/A   Clear
11:55 PM 30.2 °F 21.3 °F 19.4 °F 64% 29.97 in 10.0 mi NNW 10.4 mph - N/A   Clear